Location: Tel Aviv
(32.0670°N, 34.7670°E)
Time: 02:56:26
(UTC+03:00)

Tiros 1 - Pass Details

Date: 20 January 2022
Orbit: 629 x 663 km, 48.4° (Epoch: 26 May)

Event Time Altitude Azimuth Distance (km) Brightness Sun altitude
Rises 01:59:05 0° 287° (WNW) 2,985 - -59.2°
Reaches altitude 10° 02:02:33 10° 313° (NW) 2,069 - -58.5°
Maximum altitude 02:05:03 14° 345° (NNW) 1,809 - -58.0°
Drops below altitude 10° 02:07:33 10° 16° (NNE) 2,061 - -57.5°
Sets 02:11:00 0° 42° (NE) 2,965 - -56.8°
